Zurück zum Katalog

ARIANE 44L+ DEB

AktivGTO
NORAD 23245·DEBRIS·🇫🇷 France

Gestartet Apr 15, 1992 von Guiana Space Centre

Loading…

TLE

AlterndSource: Space-Track

Epoche: Sep 14, 2026, 13:27 UTC

1 23245U 92021P   26257.56085659 -.00000127  00000-0  00000-0 0  9997
2 23245   4.0980  11.7121 7007574 109.9850 333.8406  2.25183065117923

Verfolge ARIANE 44L+ DEB in Echtzeit mit AllMySat

Download on the App Store